TimeCST,TemperatureF,Dew PointF,Humidity,Sea Level PressureIn,VisibilityMPH,Wind Direction,Wind SpeedMPH,Gust SpeedMPH,PrecipitationIn,Events,Conditions,WindDirDegrees,DateUTC
12:15 AM,12.2,5.9,76,29.91,10.0,WNW,5.8,-,N/A,,Clear,300,2013-01-31 06:15:00
12:35 AM,12.7,5.9,74,29.91,10.0,NW,13.8,17.3,N/A,,Clear,310,2013-01-31 06:35:00
12:55 AM,12.2,5.5,75,29.91,10.0,NW,11.5,17.3,N/A,,Clear,310,2013-01-31 06:55:00
1:15 AM,11.7,5.4,76,29.92,10.0,NW,6.9,-,N/A,,Clear,310,2013-01-31 07:15:00
1:35 AM,11.1,5.0,76,29.92,10.0,NW,11.5,-,N/A,,Clear,320,2013-01-31 07:35:00
1:55 AM,10.4,4.8,78,29.93,10.0,NW,13.8,-,N/A,,Clear,320,2013-01-31 07:55:00
2:15 AM,10.0,3.2,74,29.94,10.0,NW,16.1,20.7,N/A,,Scattered Clouds,320,2013-01-31 08:15:00
2:35 AM,9.7,2.3,72,29.95,10.0,NW,11.5,18.4,N/A,,Scattered Clouds,310,2013-01-31 08:35:00
2:55 AM,9.5,2.1,72,29.95,10.0,NW,12.7,17.3,N/A,,Overcast,320,2013-01-31 08:55:00
3:15 AM,9.3,1.9,72,29.95,10.0,NW,10.4,18.4,N/A,,Overcast,310,2013-01-31 09:15:00
3:35 AM,9.0,0.9,70,29.95,10.0,NW,12.7,-,N/A,,Overcast,320,2013-01-31 09:35:00
3:55 AM,8.6,0.5,70,29.95,10.0,NW,12.7,-,N/A,,Overcast,320,2013-01-31 09:55:00
4:15 AM,8.2,0.5,71,29.96,10.0,NW,10.4,17.3,N/A,,Mostly Cloudy,320,2013-01-31 10:15:00
4:35 AM,7.3,-0.0,72,29.97,10.0,NW,9.2,-,N/A,,Scattered Clouds,320,2013-01-31 10:35:00
4:55 AM,7.0,-0.0,73,29.98,10.0,WNW,5.8,-,N/A,,Scattered Clouds,300,2013-01-31 10:55:00
5:15 AM,6.4,0.1,75,29.99,10.0,NW,5.8,-,N/A,,Clear,310,2013-01-31 11:15:00
5:35 AM,6.8,0.5,75,30.00,10.0,NW,8.1,-,N/A,,Mostly Cloudy,310,2013-01-31 11:35:00
6:15 AM,7.5,-0.2,71,30.00,10.0,NW,15.0,19.6,N/A,,Overcast,310,2013-01-31 12:15:00
6:55 AM,7.2,-2.2,66,30.02,10.0,NW,12.7,-,N/A,,Mostly Cloudy,320,2013-01-31 12:55:00
7:15 AM,6.6,-2.2,67,30.04,10.0,WNW,11.5,-,N/A,,Mostly Cloudy,300,2013-01-31 13:15:00
7:35 AM,6.8,-2.2,67,30.04,10.0,NW,10.4,-,N/A,,Mostly Cloudy,310,2013-01-31 13:35:00
7:55 AM,6.8,-3.6,62,30.05,10.0,NW,17.3,24.2,N/A,,Scattered Clouds,310,2013-01-31 13:55:00
8:15 AM,6.8,-3.6,62,30.06,10.0,NW,15.0,-,N/A,,Clear,320,2013-01-31 14:15:00
8:35 AM,6.8,-2.9,64,30.08,10.0,NW,16.1,24.2,N/A,,Clear,310,2013-01-31 14:35:00
8:55 AM,7.2,-2.9,63,30.09,10.0,NW,20.7,26.5,N/A,,Clear,320,2013-01-31 14:55:00
9:15 AM,7.3,-3.1,62,30.11,10.0,WNW,18.4,24.2,N/A,,Clear,300,2013-01-31 15:15:00
9:35 AM,7.5,-2.6,63,30.13,10.0,NW,20.7,24.2,N/A,,Clear,310,2013-01-31 15:35:00
9:55 AM,7.0,-3.8,61,30.15,10.0,NW,19.6,31.1,N/A,,Scattered Clouds,310,2013-01-31 15:55:00
10:15 AM,6.4,-4.0,62,30.17,10.0,NW,23.0,29.9,N/A,,Overcast,310,2013-01-31 16:15:00
10:35 AM,6.8,-3.5,63,30.18,10.0,NW,18.4,25.3,N/A,,Overcast,320,2013-01-31 16:35:00
10:55 AM,6.4,-4.2,62,30.20,10.0,NW,23.0,32.2,N/A,,Overcast,320,2013-01-31 16:55:00
11:15 AM,7.0,-2.9,64,30.21,7.0,NW,18.4,26.5,N/A,,Overcast,310,2013-01-31 17:15:00
11:35 AM,7.2,-5.1,57,30.21,10.0,NW,25.3,32.2,N/A,,Scattered Clouds,310,2013-01-31 17:35:00
11:55 AM,7.3,-4.2,59,30.22,10.0,NW,23.0,34.5,N/A,,Scattered Clouds,310,2013-01-31 17:55:00
12:15 PM,7.3,-4.2,59,30.22,10.0,NW,28.8,34.5,N/A,,Mostly Cloudy,320,2013-01-31 18:15:00
12:35 PM,7.2,-5.6,56,30.22,10.0,NW,26.5,39.1,N/A,,Scattered Clouds,310,2013-01-31 18:35:00
12:55 PM,7.2,-5.6,56,30.23,10.0,NW,26.5,35.7,N/A,,Scattered Clouds,310,2013-01-31 18:55:00
1:15 PM,7.7,-4.4,58,30.24,10.0,NW,21.9,33.4,N/A,,Scattered Clouds,320,2013-01-31 19:15:00
1:35 PM,8.4,-4.2,57,30.24,10.0,NW,23.0,32.2,N/A,,Mostly Cloudy,310,2013-01-31 19:35:00
1:55 PM,7.9,-4.4,57,30.24,10.0,WNW,19.6,29.9,N/A,,Scattered Clouds,300,2013-01-31 19:55:00
2:15 PM,8.6,-3.8,57,30.24,10.0,WNW,17.3,28.8,N/A,,Scattered Clouds,300,2013-01-31 20:15:00
2:35 PM,8.6,-4.2,56,30.25,10.0,NW,20.7,31.1,N/A,,Scattered Clouds,310,2013-01-31 20:35:00
2:55 PM,8.2,-4.9,55,30.26,10.0,NW,21.9,31.1,N/A,,Scattered Clouds,310,2013-01-31 20:55:00
3:15 PM,8.4,-4.9,55,30.26,10.0,NW,21.9,28.8,N/A,,Scattered Clouds,320,2013-01-31 21:15:00
3:35 PM,8.2,-5.1,55,30.28,10.0,NW,18.4,26.5,N/A,,Clear,310,2013-01-31 21:35:00
3:55 PM,8.2,-5.1,55,30.28,10.0,NW,20.7,26.5,N/A,,Clear,310,2013-01-31 21:55:00
4:15 PM,8.2,-4.4,57,30.29,10.0,NW,18.4,25.3,N/A,,Clear,310,2013-01-31 22:15:00
4:35 PM,7.7,-4.9,56,30.30,10.0,WNW,16.1,24.2,N/A,,Scattered Clouds,300,2013-01-31 22:35:00
4:55 PM,7.0,-5.6,56,30.30,10.0,WNW,17.3,-,N/A,,Scattered Clouds,300,2013-01-31 22:55:00
5:15 PM,6.4,-5.6,58,30.30,10.0,NW,18.4,24.2,N/A,,Clear,310,2013-01-31 23:15:00
5:35 PM,5.7,-6.0,59,30.30,10.0,NW,15.0,-,N/A,,Clear,310,2013-01-31 23:35:00
5:55 PM,5.0,-6.2,60,30.31,10.0,NW,15.0,-,N/A,,Clear,320,2013-01-31 23:55:00
6:15 PM,4.5,-6.5,60,30.32,10.0,WNW,9.2,-,N/A,,Clear,300,2013-02-01 00:15:00
6:35 PM,3.9,-6.7,61,30.33,10.0,NW,11.5,-,N/A,,Clear,310,2013-02-01 00:35:00
6:55 PM,3.7,-6.7,62,30.33,10.0,NW,10.4,16.1,N/A,,Clear,310,2013-02-01 00:55:00
7:15 PM,3.0,-6.9,63,30.34,10.0,NW,5.8,-,N/A,,Clear,310,2013-02-01 01:15:00
7:35 PM,2.5,-6.7,66,30.34,10.0,NW,8.1,-,N/A,,Clear,310,2013-02-01 01:35:00
7:55 PM,3.0,-7.1,63,30.34,10.0,NW,11.5,17.3,N/A,,Clear,320,2013-02-01 01:55:00
8:15 PM,2.7,-7.2,63,30.35,10.0,NW,10.4,-,N/A,,Clear,310,2013-02-01 02:15:00
8:35 PM,2.3,-6.9,66,30.35,10.0,NW,8.1,-,N/A,,Clear,310,2013-02-01 02:35:00
8:55 PM,2.1,-7.1,66,30.35,10.0,NW,10.4,-,N/A,,Clear,320,2013-02-01 02:55:00
9:15 PM,1.4,-7.4,67,30.36,10.0,NW,9.2,-,N/A,,Clear,320,2013-02-01 03:15:00
9:35 PM,1.4,-7.6,66,30.37,10.0,NW,6.9,-,N/A,,Clear,310,2013-02-01 03:35:00
9:55 PM,0.7,-7.6,68,30.37,10.0,WNW,5.8,-,N/A,,Clear,300,2013-02-01 03:55:00
10:15 PM,0.7,-7.8,68,30.38,10.0,WNW,6.9,-,N/A,,Clear,300,2013-02-01 04:15:00
10:35 PM,0.5,-7.8,68,30.38,10.0,WNW,5.8,-,N/A,,Clear,300,2013-02-01 04:35:00
10:55 PM,0.5,-7.8,68,30.37,10.0,NW,6.9,-,N/A,,Clear,310,2013-02-01 04:55:00
11:15 PM,0.5,-7.8,68,30.37,10.0,NW,5.8,-,N/A,,Clear,310,2013-02-01 05:15:00
11:35 PM,-0.4,-8.0,70,30.38,10.0,WNW,5.8,-,N/A,,Clear,300,2013-02-01 05:35:00
11:55 PM,-0.2,-7.8,70,30.38,10.0,WNW,3.5,-,N/A,,Clear,290,2013-02-01 05:55:00